Simultaneous Nadir Overpasses (SNOs) Predictions

Prediction of SNOs between NPP and TERRA Satellite Orbit:

Table of predicted SNOs for the next 14.0 days since TLE Epoch: 9/21/2013
Index Date (NPP) Time (NPP) Lat,Lon (NPP) SZA (NPP ) Date (TERRA) Time (TERRA) Lat,Lon (TERRA) SZA (TERRA ) Distance(km) Time Diff (sec)
1 09/23/2013 09:49:39 69.16, 30.25 69.26 09/23/2013 09:50:48 69.07, 31.81 69.18 62.55 69
2 09/23/2013 10:40:08 -68.40,-161.40 111.49 09/23/2013 10:40:28 -68.41,-161.39 111.49 0.88 20
3 09/23/2013 11:30:52 68.25, 6.09 68.38 09/23/2013 11:29:56 68.24, 6.05 68.36 2.54 56
4 09/26/2013 02:06:23 68.49, 146.92 69.64 09/26/2013 02:07:25 68.47, 146.93 69.61 3.19 62
5 09/26/2013 02:57:04 -68.37, -45.59 110.48 09/26/2013 02:56:55 -68.36, -45.56 110.49 1.60 9
6 09/26/2013 03:47:40 67.80, 122.44 68.97 09/26/2013 03:46:29 67.85, 121.49 69.02 40.48 71
7 09/28/2013 18:23:19 68.42, -97.21 70.61 09/28/2013 18:23:53 68.40, -97.25 70.59 2.71 34
8 09/28/2013 19:14:00 -68.29, 70.28 109.51 09/28/2013 19:13:23 -68.30, 70.26 109.50 1.58 37
9 10/01/2013 09:49:38 -68.86,-149.33 107.93 10/01/2013 09:50:49 -68.73,-148.61 108.06 32.11 71
10 10/01/2013 10:40:16 68.41, 18.58 71.64 10/01/2013 10:40:20 68.38, 18.61 71.61 2.99 4
11 10/01/2013 11:30:57 -68.27,-173.93 108.49 10/01/2013 11:29:50 -68.29,-173.88 108.48 2.55 67
12 10/04/2013 02:06:28 -68.47, -33.04 107.28 10/04/2013 02:07:20 -68.48, -33.04 107.28 0.52 52
13 10/04/2013 02:57:12 68.35, 134.43
